sat.trackr.live / text

‹ back to catalog

STARLINK-34347

NORAD 64226 · 2025-117Z

PAYLOAD ACTIVE UNKNOWN

§ Identity

Operator
Country
US
Launch date
2025-05-31
Launch site
AFWTR
Launch vehicle
Mass (kg)
RCS (m²)

Purposes: comms

External: N2YO · Heavens-Above · Gunter

§ Orbital elements

Epoch: 2026-09-20T11:46:07.040064Z

Period
93.85 min
Inclination
53.1565°
Eccentricity
0.0000466
Mean motion
15.34413727 rev/d
Perigee alt
462.3 km
Apogee alt
463.0 km
Semi-major
6,840.8 km
B*
6.9044e-4
RAAN
211.7185°
Arg perigee
88.9042°
Mean anomaly
271.2014°
Rev number
7,439

§ Raw data

STARLINK-343471 64226U 25117Z   26263.49035926  .00023033  00000+0  69044-3 0  99992 64226  53.1565 211.7185 0000466  88.9042 271.2014 15.34413727 74396

JSON: /api/v1/satellites/64226 · /tle

For live sub-satellite position, see the globe view (requires WebGL).

§ Visibility from observer

Set your observer location to see the next 7 days of passes ≥ 10°. The values pass through the URL so the page stays shareable.

No JS? Fill the form by hand. The geolocation button needs JavaScript.